Location: Newark
(50.5930°N, 3.6720°W)
Time: 23:47:04
(UTC+00:00)

Envisat - Pass Details

Date: 01 September 2019
Orbit: 764 x 766 km, 98.1° (Epoch: 19 September)

Event Time Altitude Azimuth Distance (km) Brightness Sun altitude
Rises 19:29:45 0° 203° (SSW) 3,222 6.3 -5.3°
Reaches altitude 10° 19:32:32 10° 218° (SW) 2,301 5.7 -5.7°
Maximum altitude 19:36:28 22° 269° (W) 1,617 5.7 -6.3°
Drops below altitude 10° 19:40:25 10° 321° (NW) 2,314 6.6 -6.9°
Sets 19:43:14 0° 336° (NNW) 3,245 7.0 -7.3°
